Location: Newark
(12.4436°N, 0.6167°W)
Time: 06:15:44
(UTC+00:00)

Transit 2A - Pass Details

Date: 11 December 2019
Orbit: 601 x 957 km, 66.7° (Epoch: 20 January)

Event Time Altitude Azimuth Distance (km) Brightness Sun altitude
Rises 06:03:53 0° 214° (SW) 3,336 9.2 -2.9°
Reaches altitude 10° 06:06:32 10° 221° (SW) 2,344 8.4 -2.3°
Maximum altitude 06:11:33 42° 291° (WNW) 1,044 6.3 -1.2°
Drops below altitude 10° 06:16:07 10° 2° (N) 2,126 8.1 -0.2°
Sets 06:18:26 0° 9° (N) 2,992 8.9 0.3°
